YAOGAN-28

Last updated on Wed Sep 17 2025 00:02:31 GMT+0000 (Coordinated Universal Time)

1 41026U 15064A 25259.62144439 .00008968 00000+0 37043-3 0 9995 2 41026 97.2709 40.0140 0014501 62.9357 297.3358 15.24135370548983
UTC large
Height (km)
Speed (km/s)
/
Latitude / Longitude
Inclination (degrees)
Orbital Period (minutes)
Azimuth
Elevation
Range (km)
Doppler Factor

Next 0 passes for location: London (51.5072 / 0.1276)

Sorry there are no passes over London.